Location: Baumgartsau
(48.4586°N, 14.0864°E)
Time: 15:50:39
(UTC+00:00)

STARLINK-1138 - Pass Details

Date: 09 April 2020
Orbit: 549 x 551 km, 53.0° (Epoch: 29 May)

Event Time Altitude Azimuth Distance (km) Brightness Sun altitude
Rises 18:05:12 0° 288° (WNW) 2,732 10.5 -3.8°
Reaches altitude 10° 18:07:30 10° 295° (WNW) 1,837 8.2 -4.2°
Maximum altitude 18:11:34 49° 10° (N) 725 4.3 -4.8°
Drops below altitude 10° 18:15:37 10° 86° (E) 1,836 5.7 -5.5°
Enters shadow 18:16:33 - 89° (E) 2,194 6.1 -5.6°
